This is the latest recevied weather packets stored in our database for station/object N6GPM. If no packets are shown the sender has not sent any weather packets the latest 10 day(s).
| Time | Temp. | Humidity | Pressure | Rain* | Wind** | Luminosity | Snow |
|---|---|---|---|---|---|---|---|
| 1777063723 | 23.33° C | 46% | 1015.2 hPa | 0 mm | - | 653 W/m² | - |
| 1777063419 | 22.22° C | 46% | 1015 hPa | 0 mm | - | 668 W/m² | - |
| 1777063116 | 22.22° C | 46% | 1015.2 hPa | 0 mm | - | 684 W/m² | - |
| 1777062813 | 22.22° C | 47% | 1015.2 hPa | 0 mm | - | 702 W/m² | - |
| 1777062507 | 22.22° C | 46% | 1015 hPa | 0 mm | - | 666 W/m² | - |
| 1777062202 | 22.22° C | 46% | 1015.3 hPa | 0 mm | - | 714 W/m² | - |
| 1777061899 | 22.78° C | 48% | 1015.2 hPa | 0 mm | - | 722 W/m² | - |
| 1777061595 | 22.22° C | 46% | 1015 hPa | 0 mm | - | 749 W/m² | - |
| 1777061292 | 22.22° C | 46% | 1015.6 hPa | 0 mm | - | 721 W/m² | - |
| 1777060987 | 21.67° C | 47% | 1015.4 hPa | 0 mm | - | 717 W/m² | - |
| 1777060682 | 22.22° C | 46% | 1015.5 hPa | 0 mm | - | 716 W/m² | - |
| 1777060377 | 21.67° C | 48% | 1015.5 hPa | 0 mm | - | 732 W/m² | - |
| 1777060075 | 21.67° C | 47% | 1015.7 hPa | 0 mm | - | 705 W/m² | - |
| 1777059770 | 22.78° C | 45% | 1015.7 hPa | 0 mm | - | 719 W/m² | - |
| 1777059467 | 22.22° C | 46% | 1015.8 hPa | 0 mm | - | 718 W/m² | - |
| 1777059164 | 21.67° C | 47% | 1015.8 hPa | 0 mm | - | 736 W/m² | - |
| 1777058859 | 22.22° C | 47% | 1015.7 hPa | 0 mm | - | 772 W/m² | - |
| 1777058553 | 21.67° C | 46% | 1016 hPa | 0 mm | - | 731 W/m² | - |
| 1777058251 | 21.67° C | 47% | 1015.9 hPa | 0 mm | - | 685 W/m² | - |
| 1777057946 | 21.11° C | 48% | 1016.2 hPa | 0 mm | - | 698 W/m² | - |
| 1777057642 | 21.11° C | 48% | 1016.3 hPa | 0 mm | - | 704 W/m² | - |
| 1777057338 | 21.67° C | 46% | 1016.1 hPa | 0 mm | - | 716 W/m² | - |
| 1777057034 | 21.67° C | 48% | 1016.3 hPa | 0 mm | - | 758 W/m² | - |
| 1777056732 | 21.67° C | 48% | 1016.3 hPa | 0 mm | - | 785 W/m² | - |
| 1777056429 | 21.67° C | 47% | 1016.5 hPa | 0 mm | - | 779 W/m² | - |
* Rain latest hour (hover to see other rain measurements)
** Current wind speed in m/s (hover to see current wind gust speed)